Flight Track Log - Related Links

Times and Time Zones

All times are in EST time to prevent confusion due to time zone crossing. See the N1926A flight status page for this flight to view local times or setup timezone preferences in your user account.

Time Position Orientation Groundspeed Altitude Reporting Facility
EST Latitude Longitude Course Direction KTS MPH feet Rate Location/Type
07:58PM 33.3286 -91.2272 116° Southeast 205 236 3,500  Level Memphis Center
07:59PM 33.3053 -91.1692 102° East 194 223 5,200 1,694 Climbing Memphis Center
08:00PM 33.2919 -91.0972 102° East 210 242 7,000 1,984 Climbing Memphis Center
08:01PM 33.2822 -91.0094 98° East 219 252 9,300 1,951 Climbing Memphis Center
08:02PM 33.2708 -90.9331 100° East 230 265 11,000 1,415 Climbing Memphis Center
08:03PM 33.2567 -90.8508 102° East 249 287 12,200 1,210 Climbing Memphis Center
08:04PM 33.2447 -90.7608 99° East 267 307 13,500 1,403 Climbing Memphis Center
08:05PM 33.2381 -90.6700 95° East 274 315 15,100 1,452 Climbing Memphis Center
08:06PM 33.2292 -90.5775 97° East 279 321 16,500 1,500 Climbing Memphis Center
08:07PM 33.2081 -90.4694 103° East 281 323 18,200 1,452 Climbing Memphis Center
08:08PM 33.1961 -90.3761 99° East 282 325 19,500 1,258 Climbing Memphis Center
08:09PM 33.1867 -90.2800 97° East 290 334 20,800 1,220 Climbing Memphis Center
08:10PM 33.1731 -90.1833 100° East 295 339 22,000 1,171 Climbing Memphis Center
08:11PM 33.1625 -90.0864 97° East 295 339 23,200 1,065 Climbing Memphis Center
08:13PM 33.1506 -89.9883 98° East 297 342 24,200 823 Climbing Memphis Center
08:14PM 33.1375 -89.8897 99° East 299 344 24,900 387 Climbing Memphis Center
08:15PM 33.1136 -89.7606 102° East 325 374 25,000 48 Climbing Memphis Center
08:16PM 33.0983 -89.6464 99° East 340 391 25,000  Level Memphis Center
08:17PM 33.0836 -89.5322 99° East 346 398 25,000  Level Memphis Center
08:18PM 33.0694 -89.4189 98° East 347 399 25,000  Level Memphis Center
08:19PM 33.0542 -89.3025 99° East 352 405 25,000  Level Memphis Center
08:20PM 33.0389 -89.1878 99° East 354 407 25,000  Level Memphis Center
08:21PM 33.0225 -89.0728 100° East 353 406 25,000  Level Memphis Center
08:22PM 33.0022 -88.9356 100° East 353 406 25,000  Level Memphis Center
08:23PM 32.9850 -88.8197 100° East 355 409 25,000  Level Memphis Center
08:24PM 32.9667 -88.7039 101° East 356 410 25,000  Level Memphis Center
08:25PM 32.9497 -88.5886 100° East 357 411 25,000  Level Memphis Center
08:26PM 32.9319 -88.4736 100° East 355 409 25,000  Level Memphis Center
08:27PM 32.9156 -88.3592 100° East 354 407 25,000  Level Memphis Center
08:28PM 32.8939 -88.2214 101° East 355 409 25,000  Level Memphis Center
08:29PM 32.8769 -88.1058 100° East 356 410 25,000  Level Memphis Center
08:30PM 32.8592 -87.9900 100° East 358 412 25,000  Level Memphis Center
08:31PM 32.8425 -87.8764 100° East 357 411 25,000 -341 Level Memphis Center
08:32PM 32.8225 -87.7592 101° East 360 414 24,300 -919 Descending Memphis Center
08:33PM 32.8025 -87.6361 101° East 374 430 23,100 -1,415 Descending Memphis Center
08:34PM 32.7772 -87.4889 102° East 380 437 21,400 -1,463 Descending Memphis Center
08:35PM 32.7603 -87.3647 99° East 381 438 20,100 -1,258 Descending Memphis Center
08:36PM 32.7447 -87.2414 98° East 381 438 18,800 -1,156 Descending Memphis Center
08:37PM 32.7233 -87.0831 99° East 373 429 17,500 -1,218 Descending Atlanta Center
08:38PM 32.6992 -86.9686 104° East 368 423 16,100 -1,450 Descending Atlanta Center
08:39PM 32.6706 -86.8519 106° East 368 423 14,600 -1,600 Descending Atlanta Center
08:40PM 32.6503 -86.7353 102° East 362 417 12,900 -1,700 Descending Atlanta Center
08:41PM 32.6275 -86.6211 103° East 362 417 11,200 -1,650 Descending Atlanta Center
08:42PM 32.6089 -86.5097 101° East 357 411 9,600 -1,750 Descending Atlanta Center
08:43PM 32.5964 -86.4033 98° East 346 398 7,700 -1,700 Descending Atlanta Center
08:44PM 32.5817 -86.3017 100° East 328 377 6,200 -1,200 Descending Atlanta Center
08:45PM 32.5667 -86.2053 100° East 311 358 5,300 -650 Descending Atlanta Center
08:46PM 32.5536 -86.1161 100° East 298 343 4,900 -400 Descending Atlanta Center
08:49PM 32.5301 -86.0308 101° East  Level FlightAware Approximate
08:56PM 32.5149 -85.8762 103° East  Level Estimated
08:57PM 32.5149 -85.8762 103° East  Level Estimated
08:58PM 32.5149 -85.8762 103° East  Level Estimated

Login

Don't have an account? Register now (free) for customized features, flight alerts, and more!